Terminal Aerodrome Forecast
Issued by NWS Missoula, MT

Home | Current Version | Previous Version | Text Only | Print | Product List | Glossary On
Versions: 1 2 3 4 5 6 7 8 9 10 11 12 13
000
FTUS45 KMSO 021139
TAFMSO
TAF
KMSO 021139Z 0212/0312 VRB05KT P6SM BKN150
     FM021800 VRB03KT P6SM VCSH OVC050
     FM022200 09015G22KT 1 1/2SM -SN BR OVC025
     FM030000 09025G34KT 1/2SM SN BLSN BKN010 OVC020
     FM030300 10020G30KT 1SM -SN BLSN BKN015 OVC025=

USA.gov is the U.S. government's official web portal to all federal, state and local government web resources and services.